CST,Max TemperatureF,Mean TemperatureF,Min TemperatureF,Max Dew PointF,MeanDew PointF,Min DewpointF,Max Humidity, Mean Humidity, Min Humidity, Max Sea Level PressureIn, Mean Sea Level PressureIn, Min Sea Level PressureIn, Max VisibilityMiles, Mean VisibilityMiles, Min VisibilityMiles, Max Wind SpeedMPH, Mean Wind SpeedMPH, Max Gust SpeedMPH,PrecipitationIn, CloudCover, Events, WindDirDegrees
2014-2-1,21,14,8,18,13,7,92,85,79,30.17,30.01,29.92,10,7,1,14,9,,0.01,5,,4
2014-2-2,14,2,-11,9,-5,-18,100,78,60,30.36,30.30,30.17,10,10,10,15,9,,0.00,0,,293
2014-2-3,15,0,-14,3,-12,-29,100,59,17,30.42,30.37,30.34,10,10,9,7,1,,0.00,0,,137
2014-2-4,17,11,5,14,0,-26,86,60,19,30.42,30.32,30.17,10,7,1,17,6,,0.00,4,,50
2014-2-5,17,5,-7,14,6,-13,92,81,72,30.51,30.35,30.14,10,6,2,22,16,24,0.00,6,,325
2014-2-6,3,-6,-14,-2,-17,-27,100,60,27,30.53,30.46,30.40,10,10,9,16,10,21,0.00,0,,274
2014-2-7,10,-2,-14,1,-14,-29,92,55,20,30.42,30.36,30.31,10,10,10,15,7,,0.00,2,,238
2014-2-8,15,10,6,12,2,-27,93,69,18,30.31,30.20,30.12,10,8,0,12,5,,0.00,7,,145
2014-2-9,10,2,-11,9,-7,-29,100,67,23,30.38,30.25,30.15,10,7,0,21,7,,0.00,1,,299
2014-2-10,3,-8,-20,-9,-20,-29,100,62,27,30.51,30.45,30.36,10,10,10,13,6,,0.00,0,,291
2014-2-11,8,-6,-20,-4,-17,-83,91,60,4,30.55,30.46,30.33,10,10,9,12,3,,0.00,0,,145
2014-2-12,21,10,-2,16,1,-31,93,58,19,30.32,30.15,29.99,10,10,10,13,7,,0.00,7,,146
2014-2-13,35,22,10,28,15,5,85,73,64,29.98,29.75,29.57,10,10,5,29,12,33,0.00,2,,222
2014-2-14,17,8,-2,9,4,-8,100,78,63,30.04,29.85,29.70,10,10,3,17,10,,0.00,1,,304
2014-2-15,17,5,-7,16,3,-11,93,82,63,30.10,30.03,29.94,10,9,1,14,6,,0.00,3,,198
2014-2-16,21,16,12,16,13,9,92,77,68,30.27,30.17,29.97,10,9,5,20,8,23,0.00,3,,2
2014-2-17,32,26,21,28,21,14,93,85,74,30.21,29.91,29.74,10,6,0,31,17,34,0.14,5,,181
2014-2-18,42,26,10,28,23,7,93,75,53,29.93,29.76,29.63,10,10,7,21,11,,0.00,0,,221
2014-2-19,37,28,19,28,25,16,93,80,70,29.99,29.90,29.74,10,10,10,16,9,,0.00,1,,248
2014-2-20,41,37,33,39,32,27,100,88,75,29.84,29.46,29.12,10,5,0,43,19,48,0.71,8,Thunderstorm,128
2014-2-21,33,26,19,27,18,14,86,72,55,29.88,29.69,29.38,10,10,2,40,28,52,0.00,4,,272
2014-2-22,26,20,15,16,13,7,86,71,59,30.15,30.03,29.89,10,10,10,16,9,20,0.00,2,,293
2014-2-23,21,16,10,12,7,3,85,69,54,30.31,30.26,30.16,10,10,10,22,11,24,0.00,0,,306
2014-2-24,19,12,6,10,6,1,86,72,62,30.38,30.31,30.28,10,10,2,18,11,24,0.00,2,,288
2014-2-25,14,8,1,10,2,-6,86,74,57,30.33,30.30,30.26,10,9,3,24,13,29,0.00,2,,294
2014-2-26,19,7,-5,9,-3,-11,78,67,53,30.34,30.07,29.75,10,10,10,36,14,43,0.00,0,,268
2014-2-27,12,4,-4,0,-11,-26,78,52,25,30.20,30.10,29.81,10,10,10,26,15,36,0.00,0,,322
2014-2-28,30,13,-4,21,3,-29,100,56,20,30.17,30.04,29.93,10,10,10,21,10,25,0.00,2,,121